Volver al catálogo

PEGASUS DEB

ActivoPO
NORAD 39919·DEBRIS·🇺🇸 United States

Lanzado May 19, 1994 desde Vandenberg Space Force Base

Loading…

Próximos Pases (próximas 24 horas)

TLE

ActualizadoSource: Space-Track

Época: Sep 13, 2026, 13:38 UTC

1 39919U 94029AFS 26256.56858852  .00001053  00000-0  20175-3 0  9990
2 39919  81.8499   6.0973 0253538   3.2995 356.9791 14.44428961642567

Sigue PEGASUS DEB en tiempo real con AllMySat

Download on the App Store